Stations météo

réclame
Mon MeteoGroup
Mühldorf, Allemagne (10875): Température de l'air & dewpoint: 09.12.2017 14:00:00 - 15.12.2017 14:00:00 (CET)Mühldorf, Allemagne (10875): Température de l'air 5cm & Température de l'air -5cm: 09.12.2017 14:00:00 - 15.12.2017 14:00:00 (CET)Mühldorf, Allemagne (10875): Température de l'air -20cm & Température de l'air -100cm: 09.12.2017 14:00:00 - 15.12.2017 14:00:00 (CET)Mühldorf, Allemagne (10875): Vitesse du vent & gusts: 09.12.2017 14:00:00 - 15.12.2017 14:00:00 (CET)Mühldorf, Allemagne (10875): Direction du vent: 09.12.2017 14:00:00 - 15.12.2017 14:00:00 (CET)Mühldorf, Allemagne (10875): reduced air pressure: 09.12.2017 14:00:00 - 15.12.2017 14:00:00 (CET)Mühldorf, Allemagne (10875): visibility: 09.12.2017 14:00:00 - 15.12.2017 14:00:00 (CET)Mühldorf, Allemagne (10875): Ensoleillement: 09.12.2017 14:00:00 - 15.12.2017 14:00:00 (CET)Mühldorf, Allemagne (10875): Quantités de précipitations: 09.12.2017 14:00:00 - 15.12.2017 14:00:00 (CET)
Date & Time tt [°C] td [°C] tt 5cm [°C] tt -5cm [°C] tt -20cm [°C] tt -100cm [°C] ff [km/h] ff [knt] fx [km/h] fx [knt] dd ppp [hPa] vv [km] sd [min] rr [mm]
15.12.2017 14:00:00 4,1 0,0 4,0 2,8 2,3 6,7 4 2 18 10 SSE 1001,1 65 3 0,0
15.12.2017 13:00:00 4,4 -0,2 4,0 2,6 2,3 6,7 15 8 33 18 W 1001,4 70 22 0,0
15.12.2017 12:00:00 4,7 -1,5 7,1 1,9 2,3 6,7 5 3 13 7 WNW 1001,3 42 37 0,0
15.12.2017 11:00:00 2,9 0,2 1,8 1,6 2,3 6,7 8 5 22 12 W 1001,5 63 0 0,0
15.12.2017 10:00:00 3,1 0,2 2,4 1,3 2,3 6,7 16 9 37 20 W 1001,2 66 0 0,0
15.12.2017 09:00:00 2,9 -0,5 2,0 1,2 2,3 6,7 26 14 37 20 W 1000,4 70 0 0,0
15.12.2017 08:00:00 2,8 -0,2 1,8 1,2 2,3 6,7 22 12 36 20 W 999,7 70 0 0,0
15.12.2017 07:00:00 2,8 0,2 1,8 1,4 2,2 6,7 25 13 34 19 W 998,9 68 0 0,0
15.12.2017 06:00:00 2,4 1,0 1,4 1,5 2,2 6,7 12 6 29 15 WSW 998,1 60 0 0,0
15.12.2017 05:00:00 2,1 1,3 1,5 1,5 2,2 6,7 9 5 24 13 SW 998,1 48 0 0,3
15.12.2017 04:00:00 2,4 1,6 1,9 1,5 2,2 6,7 9 5 16 9 WSW 997,5 12 0 1,5
15.12.2017 03:00:00 2,9 1,8 2,2 1,4 2,2 6,7 8 4 16 8 W 996,9 19 0 0,1
15.12.2017 02:00:00 2,7 2,0 1,8 1,4 2,2 6,7 5 3 11 6 S 997,5 53 0 0,0
15.12.2017 01:00:00 2,5 2,3 1,9 1,3 2,2 6,7 4 2 12 6 E 998,1 46 0 0,1
15.12.2017 00:00:00 2,9 2,4 2,1 1,1 2,2 6,7 5 3 21 11 S 998,6 26 0 1,2
14.12.2017 23:00:00 3,2 1,8 2,3 0,8 2,2 6,7 13 7 21 11 W 999,0 7 0 0,7
14.12.2017 22:00:00 3,3 0,8 1,4 0,6 2,3 6,7 5 3 10 6 SW 999,5 29 0 0,0
14.12.2017 21:00:00 1,6 -0,9 0,0 0,7 2,3 6,8 5 3 9 5 ESE 1000,7 31 0 0,0
14.12.2017 20:00:00 2,0 -1,2 0,3 0,7 2,3 6,8 7 4 9 5 E 1001,2 42 0 0,0
14.12.2017 19:00:00 1,3 -1,7 -1,2 0,8 2,3 6,8 3 2 8 4 E 1002,0 38 0 0,0
14.12.2017 18:00:00 2,2 -1,7 -2,0 1,2 2,2 6,8 3 2 13 7 S 1003,0 54 0 0,0
14.12.2017 17:00:00 3,5 -1,9 1,4 1,6 2,2 6,8 9 5 34 18 WSW 1003,5 58 0 0,0
14.12.2017 16:00:00 4,2 -2,0 2,8 1,8 2,1 6,8 19 10 42 23 WSW 1003,8 59 0 0,0
14.12.2017 15:00:00 4,4 -2,6 2,9 2,2 2,1 6,8 17 9 29 16 WSW 1004,0 70 5 0,0
14.12.2017 14:00:00 4,8 -1,1 4,7 2,2 2,0 6,8 13 7 38 20 WSW 1004,1 52 21 0,0
14.12.2017 13:00:00 4,9 -1,7 4,8 2,0 2,0 6,8 30 16 50 27 W 1004,4 20 42 0,0
14.12.2017 12:00:00 4,0 -1,2 3,5 1,4 2,0 6,8 32 17 46 25 W 1005,5 40 31 0,0
14.12.2017 11:00:00 3,7 -0,9 3,3 1,0 1,9 6,8 22 12 39 21 WSW 1005,4 65 0 0,0
14.12.2017 10:00:00 3,4 -0,1 2,6 0,9 1,9 6,8 21 11 41 22 W 1004,9 68 0 0,0
14.12.2017 09:00:00 2,4 1,1 1,7 0,9 2,0 6,8 30 16 126 68 W 1003,4 70 0 1,7
14.12.2017 08:00:00 7,1 1,4 5,5 0,9 2,0 6,8 44 24 64 35 W 999,1 70 0 0,0
14.12.2017 07:00:00 7,2 1,3 5,0 0,7 2,0 6,8 40 22 61 33 W 998,1 70 0 0,0
14.12.2017 06:00:00 6,6 2,6 4,8 0,5 2,0 6,8 43 23 68 37 W 998,3 70 0 0,5
14.12.2017 05:00:00 0,4 -0,5 0,0 0,3 2,0 6,8 6 3 14 7 SSE 1000,2 14 0 0,0
14.12.2017 04:00:00 0,2 -0,5 0,0 0,3 2,0 6,8 9 5 11 6 E 999,9 19 0 0,4
14.12.2017 03:00:00 0,2 -0,6 0,0 0,3 2,0 6,8 7 4 18 10 E 1001,4 17 0 0,6
14.12.2017 02:00:00 0,4 -1,4 -0,1 0,3 2,0 6,9 3 2 13 7 E 1001,9 23 0 0,2
14.12.2017 01:00:00 0,3 -2,0 -0,1 0,3 2,0 6,9 10 5 22 12 E 1001,7 20 0 0,3
14.12.2017 00:00:00 0,3 -2,4 -0,1 0,3 2,0 6,9 7 4 25 13 E 1003,6 27 0 0,0
13.12.2017 23:00:00 -0,5 -1,7 -0,8 0,3 2,0 6,9 8 4 16 9 N 1005,2 16 0 0,0
13.12.2017 22:00:00 0,0 -1,9 -0,4 0,3 2,0 6,9 9 5 13 7 E 1006,0 19 0 0,2
13.12.2017 21:00:00 0,1 -1,9 -0,2 0,3 2,0 6,9 4 2 8 5 ESE 1008,3 31 0 0,0
13.12.2017 20:00:00 -0,2 -2,5 -0,5 0,3 2,0 6,9 9 5 12 7 E 1008,9 37 0 0,0
13.12.2017 19:00:00 -1,1 -2,8 -3,2 0,3 2,0 6,9 5 3 11 6 E 1009,6 23 0 0,0
13.12.2017 18:00:00 -0,5 -2,6 -1,7 0,3 2,0 6,9 5 3 9 5 ESE 1011,0 28 0 0,0
13.12.2017 17:00:00 0,0 -3,0 -2,5 0,4 2,0 6,9 5 3 9 5 ESE 1011,8 32 0 0,0
13.12.2017 16:00:00 2,0 -3,5 -1,1 0,4 2,0 6,9 6 4 19 11 ESE 1012,1 55 41 0,0
13.12.2017 15:00:00 3,6 -3,9 2,6 0,4 2,1 6,9 13 7 23 13 SSE 1013,4 55 60 0,0
13.12.2017 14:00:00 4,1 -3,8 3,2 0,4 2,1 6,9 12 7 20 11 S 1014,5 24 60 0,0
13.12.2017 13:00:00 3,6 -3,8 3,1 0,4 2,1 6,9 6 3 9 5 S 1016,4 42 60 0,0
13.12.2017 12:00:00 2,6 -3,3 2,1 0,4 2,1 6,9 3 2 7 4 S 1018,2 41 60 0,0
13.12.2017 11:00:00 0,9 -4,4 0,6 0,4 2,1 6,9 0 0 6 3 N 1019,7 20 60 0,0
13.12.2017 10:00:00 -1,2 -3,9 0,0 0,3 2,1 6,9 4 2 8 4 E 1020,5 13 60 0,0
13.12.2017 09:00:00 -3,1 -4,0 -2,4 0,3 2,1 6,9 5 3 7 4 ESE 1021,6 9 25 0,0
13.12.2017 08:00:00 -4,1 -4,4 -6,9 0,4 2,1 6,9 3 1 6 3 NNW 1022,2 6 0 0,0
13.12.2017 07:00:00 -3,5 -4,0 -6,5 0,4 2,1 7,0 3 2 6 3 E 1022,1 9 0 0,0
13.12.2017 06:00:00 -3,8 -4,3 -6,5 0,4 2,1 7,0 4 2 8 4 E 1022,0 3,7 0 0,0
13.12.2017 05:00:00 -3,6 -3,8 -5,8 0,4 2,1 7,0 4 2 4 2 N 1021,7 3,3 0 0,0
13.12.2017 04:00:00 -3,4 -3,5 -6,3 0,4 2,1 7,0 3 2 4 2 N 1021,7 1,8 0 0,0
13.12.2017 03:00:00 -2,2 -2,2 -5,7 0,5 2,2 7,0 3 1 4 2 WSW 1021,8 0,5 0 0,0
13.12.2017 02:00:00 -1,6 -1,6 -3,9 0,5 2,2 7,0 2 1 5 3 ENE 1021,3 3,2 0 0,0
13.12.2017 01:00:00 -1,5 -1,6 -3,9 0,5 2,2 7,0 2 1 4 2 N 1021,1 1,3 0 0,0
13.12.2017 00:00:00 -0,6 -1,0 -2,1 0,5 2,2 7,0 0 0 5 3 N 1020,9 4,5 0 0,0
12.12.2017 23:00:00 -0,2 -0,6 -1,2 0,6 2,2 7,0 2 1 6 4 ESE 1020,1 7 0 0,0
12.12.2017 22:00:00 0,1 -0,3 -1,3 0,6 2,2 7,0 4 2 9 5 WNW 1019,7 7 0 0,0
12.12.2017 21:00:00 0,5 -0,2 -0,6 0,7 2,2 7,0 5 3 14 8 WSW 1019,0 9 0 0,0
12.12.2017 20:00:00 0,9 0,1 0,0 0,8 2,2 7,0 6 4 11 6 WSW 1018,5 13 0 0,0
12.12.2017 19:00:00 0,8 0,3 -0,3 1,1 2,1 7,0 3 2 13 7 SW 1018,0 17 0 0,0
12.12.2017 18:00:00 1,1 0,3 0,5 1,2 2,1 7,0 7 4 12 7 SSW 1017,2 21 0 0,1
12.12.2017 17:00:00 1,4 0,5 0,8 1,3 2,0 7,0 6 3 15 8 SSW 1016,4 15 0 0,1
12.12.2017 16:00:00 1,9 0,0 1,3 1,3 2,0 7,0 11 6 23 13 WSW 1015,5 24 0 0,1
12.12.2017 15:00:00 2,7 -0,9 2,2 1,3 2,0 7,0 11 6 29 15 W 1014,0 45 0 0,0
12.12.2017 14:00:00 3,2 -0,1 2,8 1,2 1,9 7,0 7 4 19 10 WSW 1013,1 48 0 0,0
12.12.2017 13:00:00 3,4 -0,4 3,2 1,0 1,9 7,0 12 6 28 15 W 1012,5 58 0 0,0
12.12.2017 12:00:00 3,3 -1,7 3,5 0,6 1,9 7,0 23 12 33 18 W 1011,9 57 0 0,0
12.12.2017 11:00:00 2,9 -1,5 2,6 0,5 1,9 7,1 24 13 35 19 W 1011,1 70 0 0,0
12.12.2017 10:00:00 3,4 -1,4 2,5 0,5 2,0 7,1 27 14 47 25 WNW 1009,3 61 0 0,0
12.12.2017 09:00:00 4,1 -0,4 3,0 0,4 2,0 7,1 29 16 42 23 W 1006,9 61 0 0,0
12.12.2017 08:00:00 4,4 1,7 2,9 0,3 2,0 7,1 16 9 31 17 W 1004,5 66 0 0,5
12.12.2017 07:00:00 3,3 3,1 1,7 0,3 2,0 7,1 2 1 11 6 SSW 1003,0 25 0 0,1
12.12.2017 06:00:00 2,6 2,2 1,8 0,3 2,0 7,1 8 4 11 6 E 1001,3 20 0 0,4
12.12.2017 05:00:00 3,3 2,7 1,9 0,3 2,0 7,1 6 3 11 6 ESE 1000,6 34 0 1,0
12.12.2017 04:00:00 3,1 2,4 1,6 0,3 2,1 7,1 5 3 11 6 SSW 999,8 11 0 2,0
12.12.2017 03:00:00 3,6 2,8 2,5 0,3 2,1 7,1 8 5 14 7 WSW 998,4 8 0 1,8
12.12.2017 02:00:00 3,8 2,9 2,5 0,3 2,1 7,1 10 6 24 13 W 997,0 11 0 1,3
12.12.2017 01:00:00 3,2 2,0 2,0 0,3 2,1 7,1 14 8 25 14 W 995,9 11 0 0,1
12.12.2017 00:00:00 1,6 0,5 0,7 0,3 2,1 7,1 3 2 5 3 NE 994,5 20 0 0,0
11.12.2017 23:00:00 2,1 0,8 0,8 0,3 2,1 7,2 3 2 12 7 W 993,1 25 0 0,0
11.12.2017 22:00:00 1,7 0,0 0,0 0,3 2,1 7,2 13 7 29 16 W 991,8 23 0 0,0
11.12.2017 21:00:00 2,8 0,3 0,9 0,3 2,1 7,2 21 12 28 15 WNW 990,3 34 0 0,0
11.12.2017 20:00:00 0,4 -1,0 -1,5 0,3 2,1 7,2 8 5 14 8 W 989,3 18 0 0,0
11.12.2017 19:00:00 2,8 0,4 1,1 0,3 2,1 7,2 23 12 44 24 WNW 987,6 24 0 0,0
11.12.2017 18:00:00 2,1 -0,4 0,4 0,3 2,1 7,2 8 5 24 13 E 986,1 21 0 0,0
11.12.2017 17:00:00 2,5 -0,2 1,4 0,3 2,1 7,2 11 6 18 10 E 985,6 27 0 0,0
11.12.2017 16:00:00 2,7 -0,1 1,6 0,3 2,1 7,2 9 5 19 10 E 985,2 30 0 0,0
11.12.2017 15:00:00 3,0 -0,2 1,6 0,3 2,1 7,2 9 5 17 9 E 985,2 33 0 0,0
11.12.2017 14:00:00 3,1 -0,2 2,0 0,3 2,2 7,2 7 4 15 8 E 985,6 33 0 0,0
11.12.2017 13:00:00 3,3 -0,6 2,2 0,3 2,2 7,2 10 5 20 11 ESE 986,0 36 0 0,0
11.12.2017 12:00:00 2,8 -0,7 2,0 0,3 2,2 7,2 11 6 27 14 E 986,6 28 0 0,0
11.12.2017 11:00:00 3,1 -1,1 2,0 0,3 2,2 7,2 16 8 28 15 E 987,8 28 0 0,0
11.12.2017 10:00:00 1,7 -0,6 1,2 0,2 2,2 7,2 8 4 21 11 E 989,5 16 0 0,0
11.12.2017 09:00:00 1,5 -0,2 0,9 0,2 2,2 7,2 9 5 20 11 ESE 989,9 15 0 0,0
11.12.2017 08:00:00 0,9 0,0 0,2 0,2 2,2 7,2 6 3 9 5 E 990,7 14 0 0,0
11.12.2017 07:00:00 1,3 0,3 0,2 0,2 2,2 7,2 5 3 13 7 SE 991,2 16 0 0,0
11.12.2017 06:00:00 1,4 0,2 0,7 0,2 2,2 7,2 8 5 11 6 E 991,4 31 0 0,0
11.12.2017 05:00:00 2,1 0,2 1,0 0,2 2,2 7,2 8 5 13 7 E 991,7 50 0 0,0
11.12.2017 04:00:00 2,9 -0,4 1,1 0,2 2,2 7,2 10 5 16 9 ENE 992,0 41 0 0,1
11.12.2017 03:00:00 2,8 -0,7 1,1 0,2 2,2 7,2 7 4 16 9 E 992,3 34 0 0,0
11.12.2017 02:00:00 2,7 -1,2 1,6 0,2 2,2 7,2 9 5 18 10 E 991,3 52 0 0,0
11.12.2017 01:00:00 2,3 -0,9 1,0 0,2 2,2 7,3 8 5 14 8 E 992,1 49 0 0,0
11.12.2017 00:00:00 3,7 0,9 1,6 0,2 2,2 7,3 8 5 12 6 E 992,1 47 0 0,0
10.12.2017 23:00:00 4,1 1,1 1,7 0,1 2,2 7,3 10 5 20 11 S 992,9 70 0 0,0
10.12.2017 22:00:00 3,9 0,8 2,0 0,1 2,2 7,3 16 9 27 14 W 993,5 70 0 0,0
10.12.2017 21:00:00 5,0 1,9 2,5 0,1 2,2 7,3 9 5 29 16 WSW 993,2 51 0 0,0
10.12.2017 20:00:00 3,1 1,9 0,2 0,1 2,2 7,3 16 9 23 13 W 993,0 64 0 0,0
10.12.2017 19:00:00 -1,7 -2,4 -1,3 0,1 2,3 7,3 6 4 9 5 E 993,8 9 0 0,0
10.12.2017 18:00:00 -1,8 -2,4 -1,0 0,1 2,3 7,3 4 2 13 7 ESE 993,9 10 0 0,5
10.12.2017 17:00:00 -2,4 -3,0 -0,8 0,1 2,3 7,3 9 5 19 11 E 993,2 8 0 0,9
10.12.2017 16:00:00 -2,9 -3,9 -2,6 0,1 2,3 7,3 12 7 32 17 E 992,9 3,7 0 0,0
10.12.2017 15:00:00 -3,3 -5,3 -3,0 0,1 2,3 7,3 19 10 30 16 E 993,3 2,7 0 0,1
10.12.2017 14:00:00 -1,7 -7,7 -1,8 0,1 2,3 7,3 10 5 19 10 ESE 995,4 59 0 0,0
10.12.2017 13:00:00 -2,4 -7,5 -2,3 0,1 2,3 7,3 10 6 16 9 E 997,6 37 0 0,0
10.12.2017 12:00:00 -3,0 -8,4 -2,8 0,1 2,3 7,3 10 5 21 11 ESE 1000,3 20 6 0,0
10.12.2017 11:00:00 -3,7 -9,8 -4,0 0,2 2,3 7,3 13 7 20 11 ESE 1003,4 13 57 0,0
10.12.2017 10:00:00 -5,1 -9,6 -5,3 0,2 2,4 7,3 10 5 16 9 E 1006,6 20 59 0,0
10.12.2017 09:00:00 -7,0 -10,1 -7,8 0,3 2,4 7,3 10 5 14 7 E 1009,2 29 29 0,0
10.12.2017 08:00:00 -8,8 -10,1 -10,8 0,3 2,4 7,3 7 4 10 6 E 1011,2 27 0 0,0
10.12.2017 07:00:00 -8,0 -8,4 -12,3 0,4 2,4 7,3 4 2 8 5 ESE 1012,4 20 0 0,0
10.12.2017 06:00:00 -7,1 -7,4 -9,8 0,4 2,4 7,3 6 3 8 4 E 1013,2 22 0 0,0
10.12.2017 05:00:00 -6,8 -7,6 -8,6 0,4 2,4 7,3 4 2 5 3 E 1013,9 22 0 0,0
10.12.2017 04:00:00 -6,3 -7,6 -10,1 0,4 2,4 7,3 3 2 4 2 ENE 1014,9 36 0 0,0
10.12.2017 03:00:00 -5,8 -7,2 -7,3 0,5 2,4 7,4 4 2 5 3 E 1016,1 40 0 0,0
10.12.2017 02:00:00 -4,9 -6,8 -9,8 0,5 2,4 7,4 3 2 12 7 S 1016,6 45 0 0,0
10.12.2017 01:00:00 -4,9 -7,7 -8,7 0,5 2,4 7,4 11 6 16 9 W 1016,9 50 0 0,0
10.12.2017 00:00:00 -2,4 -7,2 -4,8 0,5 2,4 7,4 12 7 26 14 WSW 1017,5 45 0 0,0
09.12.2017 23:00:00 -2,5 -6,8 -4,0 0,5 2,5 7,4 18 10 30 16 W 1017,9 45 0 0,0
09.12.2017 22:00:00 -1,6 -5,9 -2,6 0,5 2,5 7,4 20 11 31 17 W 1017,8 55 0 0,0
09.12.2017 21:00:00 -1,6 -5,9 -2,4 0,5 2,5 7,4 15 8 22 12 W 1018,3 43 0 0,0
09.12.2017 20:00:00 -2,2 -6,4 -4,1 0,5 2,5 7,4 12 7 27 14 WSW 1018,4 38 0 0,0
09.12.2017 19:00:00 -2,2 -6,1 -4,1 0,5 2,5 7,4 22 12 31 17 W 1018,3 47 0 0,0
09.12.2017 18:00:00 -4,0 -7,4 -7,1 0,6 2,5 7,4 14 8 24 13 W 1018,4 42 0 0,0
09.12.2017 17:00:00 -2,9 -7,8 -6,5 0,6 2,5 7,4 9 5 35 19 W 1018,0 40 0 0,0
09.12.2017 16:00:00 -1,6 -7,6 -3,3 0,6 2,5 7,4 26 14 48 26 W 1017,8 44 47 0,0
09.12.2017 15:00:00 -0,8 -7,3 -1,2 0,6 2,5 7,4 29 16 51 27 W 1017,5 20 44 0,0
09.12.2017 14:00:00 -0,5 -6,8 -0,1 0,6 2,5 7,4 30 16 55 30 W 1017,5 15 9 0,0

tt = Température de l'air
td = dewpoint
tt 5cm = Température de l'air 5cm
tt -5cm = Température de l'air -5cm
tt -20cm = Température de l'air -20cm
tt -100cm = Température de l'air -100cm
ff = Vitesse du vent
fx = gusts
dd = Direction du vent
ppp = reduced air pressure
vv = visibility
sd = Ensoleillement
rr = Quantités de précipitations

stations d'obs. à proximité